Location: Newark
(53.3469°N, 7.1606°E)
Time: 01:20:15
(UTC+00:00)

N. Korean satellite - Pass Details

Date: 17 November 2019
Orbit: 456 x 506 km, 97.2° (Epoch: 06 December)

Event Time Altitude Azimuth Distance (km) Brightness Sun altitude
Rises 17:37:54 0° 210° (SSW) 2,564 10.8 -18.3°
Reaches altitude 10° 17:40:40 10° 234° (SW) 1,698 10.2 -18.8°
Maximum altitude 17:42:53 15° 271° (W) 1,406 10.0 -19.1°
Drops below altitude 10° 17:45:08 10° 309° (NW) 1,721 9.9 -19.4°
Sets 17:47:58 0° 333° (NNW) 2,619 10.6 -19.8°
